Location: Finnegan
(51.1333°N, 112.0833°W)
Time: 03:28:40
(UTC+00:00)

N. Korean satellite - Visible Passes

Search period start: 02 October 2022 00:00
Search period end: 12 October 2022 00:00
Orbit: 426 x 468 km, 97.3° (Epoch: 01 October)

Date Brightness Start Highest point End Pass type
(mag) Time Alt. Az. Time Alt. Az. Time Alt. Az.
02 Oct 9.3 12:03:16 10° NE 12:05:43 19° E 12:08:09 10° SE visible
04 Oct 8.3 12:23:44 10° NNE 12:26:45 33° E 12:29:44 10° SSE visible
05 Oct 9.7 11:48:50 10° ENE 11:50:32 13° E 11:52:13 10° ESE visible
06 Oct 7.0 12:44:17 10° NNE 12:47:32 60° E 12:50:46 10° S visible
07 Oct 9.1 12:08:41 10° NE 12:11:19 22° E 12:13:58 10° SSE visible
08 Oct 6.2 13:04:47 10° N 13:08:04 74° WNW 13:11:19 10° SSW visible
09 Oct 8.0 12:28:47 10° NNE 12:31:53 38° E 12:34:58 10° SSE visible
10 Oct 9.6 11:53:28 10° NE 11:55:28 15° E 11:57:28 10° SE visible
11 Oct 6.7 12:48:54 10° NNE 12:52:11 69° ESE 12:55:27 10° S visible
